CST,Max TemperatureF,Mean TemperatureF,Min TemperatureF,Max Dew PointF,MeanDew PointF,Min DewpointF,Max Humidity, Mean Humidity, Min Humidity, Max Sea Level PressureIn, Mean Sea Level PressureIn, Min Sea Level PressureIn, Max VisibilityMiles, Mean VisibilityMiles, Min VisibilityMiles, Max Wind SpeedMPH, Mean Wind SpeedMPH, Max Gust SpeedMPH,PrecipitationIn, CloudCover, Events, WindDirDegrees
2013-12-1,73,66,59,59,57,55,84,75,66,30.18,30.08,29.95,10,10,10,14,5,20,0.00,7,,229
2013-12-2,81,69,56,59,56,52,90,65,39,29.92,29.78,29.67,10,10,7,14,6,18,0.00,5,,253
2013-12-3,86,68,50,58,48,40,89,55,20,29.70,29.65,29.59,10,10,10,12,4,15,0.00,3,,242
2013-12-4,77,65,52,65,59,49,100,82,64,29.80,29.72,29.65,10,5,0,10,3,13,T,6,Fog-Rain,218
2013-12-5,69,53,36,67,46,27,100,79,57,30.05,29.90,29.75,10,6,0,24,13,32,T,8,Fog,21
2013-12-6,45,39,32,32,28,22,89,74,59,30.40,30.22,30.02,10,10,7,23,13,28,0.01,7,Rain,1
2013-12-7,37,33,29,25,22,19,72,63,54,30.43,30.34,30.26,10,10,10,20,11,24,T,7,,14
2013-12-8,52,42,32,40,33,25,92,76,59,30.25,30.11,30.01,10,10,5,8,2,13,T,8,Rain,130
2013-12-9,47,42,37,43,40,31,92,84,76,30.35,30.13,30.03,10,4,0,21,8,30,0.03,8,Fog-Rain,29
2013-12-10,53,42,31,30,24,18,85,56,26,30.49,30.39,30.32,10,10,10,21,6,29,0.00,2,,8
2013-12-11,64,48,31,33,29,25,78,52,26,30.51,30.38,30.31,10,10,10,12,2,15,0.00,5,,5
2013-12-12,55,47,39,34,32,28,64,55,45,30.57,30.45,30.30,10,10,10,12,6,17,0.00,5,,43
2013-12-13,52,50,48,50,43,33,96,75,54,30.28,30.03,29.89,10,5,0,12,5,14,0.02,8,Rain,222
2013-12-14,62,52,42,48,39,29,100,70,39,30.31,30.06,29.90,10,7,0,23,10,30,0.00,4,Fog,316
2013-12-15,64,48,32,33,28,26,82,53,24,30.39,30.32,30.26,10,10,10,13,4,16,0.00,1,,316
2013-12-16,68,50,32,35,30,27,82,53,24,30.31,30.25,30.18,10,10,10,15,6,18,0.00,0,,269
2013-12-17,72,54,36,42,36,32,89,57,25,30.31,30.25,30.21,10,10,10,9,3,15,0.00,1,,290
2013-12-18,73,57,40,53,46,36,92,67,41,30.27,30.16,30.03,10,10,9,18,7,23,0.00,2,,199
2013-12-19,77,69,61,62,58,54,90,70,50,30.03,29.90,29.77,10,10,10,20,9,25,0.00,7,,170
2013-12-20,77,71,65,67,64,63,93,79,64,29.85,29.74,29.60,10,9,7,22,9,29,0.00,8,,144
2013-12-21,75,62,48,67,55,35,90,57,23,29.82,29.63,29.52,10,8,2,24,7,32,0.22,6,Rain-Thunderstorm,274
2013-12-22,64,54,43,41,36,29,83,62,40,30.33,30.07,29.82,10,10,10,18,9,24,0.00,1,,340
2013-12-23,62,47,32,31,26,18,75,48,20,30.51,30.43,30.34,10,10,10,12,3,14,0.00,0,,12
2013-12-24,61,46,31,38,28,21,82,52,22,30.51,30.40,30.26,10,10,10,15,5,20,0.00,1,,183
2013-12-25,61,50,39,48,43,37,92,76,59,30.37,30.28,30.21,10,10,10,16,4,22,0.00,6,,34
2013-12-26,54,51,47,46,40,35,86,70,54,30.41,30.35,30.30,10,9,7,16,5,21,T,8,Rain,34
2013-12-27,58,52,46,46,45,44,93,78,62,30.42,30.35,30.30,10,7,3,10,3,13,0.27,8,Rain,14
2013-12-28,58,52,46,46,44,42,93,75,57,30.29,30.14,30.02,10,9,2,9,3,13,T,7,Rain,194
2013-12-29,66,53,39,50,43,31,92,74,56,30.23,30.04,29.96,10,8,4,23,6,30,0.00,6,,343
2013-12-30,47,43,38,31,27,23,76,61,45,30.37,30.28,30.19,10,10,10,21,7,26,0.00,8,,4
2013-12-31,55,46,37,33,29,25,79,57,35,30.43,30.34,30.23,10,10,10,9,3,12,0.00,6,,130